TIANWANG 1B (TW-1B)

Last updated on Fri Feb 16 2018 09:49:59 GMT+0000 (Coordinated Universal Time)

1 40927U 15051C 18047.12084098 .00005974 00000-0 12467-3 0 9994 2 40927 97.2092 89.9896 0011227 22.4136 39.5831 15.45851928134503
UTC large
Height (km)
Speed (km/s)
/
Latitude / Longitude
Inclination (degrees)
Orbital Period (minutes)
Azimuth
Elevation
Range (km)
Doppler Factor

Next 0 passes for location: London (51.5072 / 0.1276)

Sorry there are no passes over London.